カタログに戻る

STARLINK-35818

運用中通信VLEO
NORAD 66540·PAYLOAD·🇺🇸 United States

打ち上げ Nov 19, 2025 から Cape Canaveral Space Force Station

Loading…

次のパス (今後24時間)

TLE

最新Source: CelesTrak SupGP

元期: Sep 14, 2026, 22:39 UTC

1 66540C 25265AA  26257.94423611  .00027220  00000+0  98581-3 0  2576
2 66540  43.0026 289.5566 0001725 270.6217  46.2213 15.27568344    13

AllMySatでSTARLINK-35818をリアルタイム追跡

Download on the App Store